www.pogodaiklimat.ru

Погода и климат >> Архив погоды >> Россия >> Калмыкия >> Юста


ПОГОДА в Юсте

  • Прогноз погоды в Юсте
  • Монитор погоды в Юсте
  • Климат города

АРХИВ ПОГОДЫ в Юсте

Время (UTC), дата Ветер
(напр.,м/с)
 
Видим.   Явления Облачность Т
(С)
Тd
(С)
f
(%)
Тe
(С)
Тes
(С)
Комфортность P
(гПа)
Po
(гПа)
Тmin
(С)
Tmax
(С)
R
(мм)
R24
(мм)
S
(см)
00 11.08 В 3 10 км ясно +17.9 +6.9 49 +18 +18 1020.3 1019.9
03 11.08 В 3 20 км ясно +19.3 +7.0 45 +20 +21 1020.7 1020.3 +16.0
06 11.08 В 4 20 км ясно +27.5 +5.0 24 +26 +33 жарко 1020.8 1020.4
09 11.08 В 4 20 км ясно +29.4 +4.6 21 +28 +38 жарко 1019.9 1019.6
12 11.08 ЮВ 3
{12}
20 км ясно +31.3 +2.9 16 +29 +36 жарко 1018.3 1017.9
15 11.08 В 4 20 км ясно +30.3 +1.2 15 +28 +28 жарко 1017.1 1016.7 +31.5
18 11.08 В 3 10 км ясно +23.5 +1.0 23 +23 +23 комфорт 1017.6 1017.2
21 11.08 ЮВ 3 10 км ясно +19.3 +9.4 53 +20 +20 1017.6 1017.2
00 12.08 СВ 2 10 км ясно +14.2 +7.2 63 +14 +14 1016.8 1016.4
03 12.08 В 2 20 км ясно +14.8 +7.2 60 +15 +15 1016.8 1016.4 +13.0
06 12.08 В 3 20 км ясно +26.9 +6.1 27 +26 +34 жарко 1017.0 1016.7
09 12.08 ЮВ 2 20 км ясно +31.1 +1.9 15 +28 +44 жарко 1015.9 1015.5
12 12.08 В 1 20 км ясно +32.8 +1.6 14 +30 +40 жарко 1014.3 1014.0
15 12.08 В 3 20 км ясно +32.2 +2.0 15 +29 +30 жарко 1013.1 1012.8 +33.5
18 12.08 В 3 10 км ясно +25.3 +1.2 21 +24 +24 комфорт 1014.1 1013.7
21 12.08 Ю 2 10 км ясно +21.4 +6.8 39 +22 +22 комфорт 1013.3 1012.9
00 13.08 ЮВ 1 10 км ясно +17.6 +6.7 49 +19 +19 1013.1 1012.7
03 13.08 СВ 1 20 км ясно +18.0 +6.1 46 +19 +20 1013.3 1012.9 +15.6
06 13.08 С 2 20 км ясно +29.6 +8.3 26 +29 +38 жарко 1013.5 1013.2
09 13.08 СВ 3 20 км ясно +34.0 +2.0 13 +31 +44 жарко 1012.6 1012.3
12 13.08 ЮВ 1 20 км ясно +35.3 +2.3 13 +32 +43 жарко 1011.2 1010.9
15 13.08 В 3 20 км ясно +34.3 +4.3 15 +32 +32 жарко 1010.7 1010.3 +35.7
18 13.08 СВ 6 10 км ясно +29.3 +10.3 31 +29 +29 жарко 1011.6 1011.3
21 13.08 В 3 10 км ясно +23.8 +8.6 38 +24 +24 комфорт 1012.7 1012.4
00 14.08 СВ 4 10 км ясно +21.2 +8.4 44 +22 +22 комфорт 1012.8 1012.5
03 14.08 СВ 4 20 км ясно +20.4 +8.2 45 +22 +22 комфорт 1013.5 1013.2 +20.0
06 14.08 В 6 20 км ясно +27.8 +7.6 28 +27 +31 жарко 1013.9 1013.6
09 14.08 СВ 5 20 км ясно +29.7 +7.2 24 +29 +37 жарко 1013.9 1013.6
12 14.08 СВ 4
{10}
20 км ясно +31.7 +6.6 21 +30 +36 жарко 1013.2 1012.9
15 14.08 СВ 5 20 км ясно +30.6 +5.3 20 +29 +29 жарко 1012.7 1012.4 +31.7
18 14.08 СВ 2 10 км ясно +22.6 +5.2 32 +23 +23 комфорт 1014.1 1013.8
21 14.08 СВ 2 10 км ясно +19.8 +7.1 44 +21 +21 комфорт 1014.6 1014.2
00 15.08 СВ 4 10 км ясно +18.4 +5.3 42 +18 +18 1014.5 1014.1
03 15.08 СВ 3 20 км ясно +17.3 +5.4 45 +17 +18 1015.2 1014.8 +15.5
06 15.08 СВ 4 20 км ясно +27.5 +3.4 21 +26 +32 жарко 1015.7 1015.3
09 15.08 СВ 4 20 км ясно +30.1 +5.1 21 +28 +39 жарко 1015.1 1014.7
12 15.08 В 4 20 км 3/0
[Ci fib]
+32.5 +1.1 14 +29 +35 жарко 1014.2 1013.8
15 15.08 В 3 20 км 8/0
[Ci fib]
+31.9 +0.4 13 +29 +29 жарко 1014.2 1013.9 +32.8
18 15.08 Ю 3 10 км 4/0
[Ac und]
+27.6 +10.7 35 +28 +28 жарко 1015.4 1015.1
21 15.08 ЮВ 1 10 км ясно +23.9 +12.4 49 +26 +26 жарко 1016.0 1015.6
00 16.08 В 2 10 км 3/0
[Ci fib]
+19.9 +12.1 61 +22 +22 комфорт 1016.4 1016.0
03 16.08 СВ 2 20 км 6/0
[Ci fib]
+19.7 +13.1 66 +22 +23 комфорт 1017.2 1016.9 +18.1
06 16.08 В 5 20 км 5/0
[Ac trans Ci sp]
+30.2 +7.1 23 +29 +32 жарко 1017.4 1017.1
09 16.08 В 4
{10}
20 км 5/3 1000 м
[Cu hum Ci sp]
+32.3 +3.4 16 +30 +36 жарко 1016.8 1016.5
12 16.08 В 4
{10}
20 км 4/3 1000 м
[Cu hum Ci sp]
+33.2 +1.7 14 +30 +34 жарко 1016.2 1015.9
15 16.08 В 5 20 км 4/0
[Ac trans]
+32.1 +2.0 15 +29 +29 жарко 1016.2 1015.8 +33.6
18 16.08 ЮВ 2 10 км ясно +25.4 +4.7 26 +25 +25 комфорт 1017.5 1017.1
21 16.08 В 3 10 км ясно +19.1 +5.0 39 +20 +20 1017.6 1017.3
00 17.08 СВ 3 10 км ясно +18.2 +10.3 60 +19 +19 1017.3 1016.9
03 17.08 СВ 4 20 км 4/0
[Ci fib]
+20.5 +5.9 39 +21 +22 комфорт 1017.7 1017.4 +17.3
06 17.08 В 4 20 км 9/0
[Ac trans]
+27.1 +4.7 24 +26 +29 жарко 1017.4 1017.0
09 17.08 ЮВ 6-14
{14}
20 км 8/0
[Ac cuf]
+33.3 +5.6 18 +31 +34 жарко 1017.0 1016.7
12 17.08 ЮВ 5
{16}
20 км {метель} 9/0
[Ac cuf]
+32.5 +2.1 15 +30 +31 жарко 1016.7 1016.4
15 17.08 ЮВ 5-12
{12}
20 км 8/0
[Ac As]
+30.5 +1.5 16 +28 +28 жарко 1017.4 1017.0 +34.5
18 17.08 В 2
{12}
10 км ясно +22.7 +2.5 27 +22 +22 комфорт 1018.6 1018.2
21 17.08 СВ 3 10 км ясно +17.8 +3.8 39 +18 +18 1018.2 1017.8

 

Местоположение метеостанции Юста (Калмыкия, Россия): широта 47.13 долгота 46.32 высота над уровнем моря 3 м.

В архиве по умолчанию представлена погода в Юсте за последнюю неделю. Архивные данные за месяц целиком и за предыдущие месяцы, начиная с января 2011 года, Вы можете получить, выбрав интересующий диапазон дат из раскрывающегося списка и нажав кнопку "Ввод!".

Внимание! Время в таблицах - всемирное. Для получения местного времени необходимо прибавить поправку, которая в Юсте равна 3 ч.

Смотрите также архив погоды в соседних городах и на ближайших метеорологических станциях:

Погода в Харабали (Астраханская область, Россия) (76 км)
Погода в Утте (Калмыкия, Россия) (88 км)
Погода в Черный Яр (Астраханская область, Россия) (106 км)
Погода в Досанге (Астраханская область, Россия) (124 км)
Погода в Верхнем Баскунчаке (Астраханская область, Россия) (125 км)
Погода в Яшкуле (Калмыкия, Россия) (129 км)
Погода в Кетченерах (Калмыкия, Россия) (134 км)
Погода в Малых Дербетах (Калмыкия, Россия) (151 км)
Погода в Астрахани (Астраханская область, Россия) (158 км)
Погода в Лимане (Астраханская область, Россия) (163 км)

Пояснения к столбцам:

Ветер - указаны скорость ветра в м/с - средняя за 10 мин, порывы в срок и между сроками (в фигурных скобках) и направление, откуда дует ветер: С - северный, СВ - северо-восточный, В - восточный, ЮВ - юго-восточный, Ю - южный, ЮЗ - юго-западный, З - западный, СЗ - северо-западный.
Видимость - горизонтальная дальность видимости в метрах или километрах. При видимости от 1 до 10 км при отсутствии осадков обычно наблюдается дымка, при ухудшении видимости до 1 км и менее - туман. В сухую погоду видимость может ухудшаться дымом, пылью или мглою.
Явления - указаны атмосферные явления, наблюдавшиеся в срок или в последний час перед сроком; фигурными скобками обозначены явления, наблюдавшиеся между сроками (за 1-3 часа до срока); квадратными скобками обозначены град или гололедные отложения с указанием их диаметра в мм.
Облачность - указаны через наклонную черту общая и нижняя облачность в баллах и высота нижней границы облаков в метрах; квадратными скобками обозначены формы облаков: Ci - перистые, Cs - перисто-слоистые, Cc - перисто-кучевые, Ac - высококучевые, As - высокослоистые, Sc - слоисто-кучевые, Ns - слоисто-дождевые, Cu - кучевые, Cb - кучево-дождевые. Подробнее классификацию облаков см. в Атласе облаков (PDF).
T - Температура воздуха - температура, измеренная на высоте 2 м над землей.
Td - Температура точки росы - температура, при понижении до которой содержащийся в воздухе водяной пар достигнет насыщения.
f - Относительная влажность воздуха - влажноcть воздуха, измеренная на высоте 2 м над землей.
Te - Эффективная температура - температура, которую ощущает одетый по сезону человек в тени. Характеристика душности погоды. При расчете учитывается влияние влажности воздуха и скорости ветра на теплоощущения человека.
Tes - Эффективная температура на солнце - температура, которую ощущает человек, с поправкой на солнечный нагрев. Характеристика знойности погоды. Зависит от высоты солнца над горизонтом, облачности и скорости ветра. Ночью, в пасмурную погоду, а также при ветре 12 м/с и более поправка равна нулю.
P - Атмосферное давление - приведенное к уровню моря атмосферное давление.
Po - Атмосферное давление - измеренное на уровне метеостанции атмосферное давление.
Tmin - Минимальная температура - минимум температуры воздуха на высоте 2 м над землей.
Tmax - Максимальная температура - максимум температуры воздуха на высоте 2 м над землей.
R - Количество осадков - Количество выпавших осадков за период времени, мм. При наведении курсора мыши на число - период времени, за который выпало указанное количество осадков.
R24 - Количество осадков - Количество выпавших осадков за 24 часа, мм.
S - Снежный покров - Высота снежного покрова, см. При наведении курсора мыши на число - состояние снежного покрова и степень покрытия местности в баллах.